Regional Weather Roundup
Issued by NWS

Home | Current Version | Previous Version | Graphics & Text | Print | Product List | Glossary On
Versions: 1 2 3 4 5 6 7 8 9 10 11 12 13 14 15 16 17 18 19 20 21 22 23 24 25 26 27 28 29 30 31 32 33 34 35 36 37 38 39 40 41 42 43 44 45 46 47 48 49 50
000
ASUS43 KLMK 221102
RWRKY
KENTUCKY REGIONAL WEATHER ROUNDUP
NATIONAL WEATHER SERVICE LOUISVILLE KY
700 AM EDT FRI AUG 22 2014

NOTE "FAIR" INDICATES FEW OR NO CLOUDS BELOW 12,000 FEET
WITH NO SIGNIFICANT WEATHER AND/OR OBSTRUCTIONS TO VISIBILITY.

KYZ001>023-026-027-061>063-070>075-221200-
WESTERN AND SOUTH CENTRAL KENTUCKY

CITY           SKY/WX    TMP DP  RH WIND       PRES   REMARKS
PADUCAH        CLEAR     77  73  87 SW6       30.02R
HENDERSON      PTCLDY    73  70  88 SW6       29.99R
OWENSBORO      PTCLDY    74  73  96 S6        30.01R
HOPKINSVILLE   NOT AVBL
BOWLING GREEN  PTCLDY    76  71  85 SW3       30.05R
GLASGOW        PTCLDY    72  72 100 CALM      30.06R
$$

KYZ024-025-028>034-038-045-046-053-221200-
NORTH CENTRAL KENTUCKY

CITY           SKY/WX    TMP DP  RH WIND       PRES   REMARKS
LOUISVILLE/SDF MOCLDY    78  72  81 SW8       29.99S
LOUISVILLE/LOU CLEAR     76  72  87 SW5       30.00R
FORT KNOX      PTCLDY    73  73 100 SW7       30.01R
$$

KYZ035>037-039>044-047>052-055>060-089>105-221200-
NORTHEAST KENTUCKY

CITY           SKY/WX    TMP DP  RH WIND       PRES   REMARKS
LEXINGTON      PTCLDY    74  70  87 SW10      30.03S
COVINGTON      MOCLDY    73  70  90 SW6       30.00R
FRANKFORT      CLEAR     72  70  93 SW7       30.01S
$$

KYZ054-064>069-076>088-106>120-221200-
SOUTHEAST KENTUCKY

CITY           SKY/WX    TMP DP  RH WIND       PRES   REMARKS
JACKSON        MOCLDY    72  69  90 CALM      30.08R
LONDON         PTCLDY    72  68  87 S5        30.09S
SOMERSET       PTCLDY    70  70 100 SE3       30.08S
MIDDLESBORO    FOG       69  69 100 CALM      30.11R VSB 1/2
MONTICELLO     PTSUNNY   69  68  97 CALM      30.10R FOG
$$




USA.gov is the U.S. government's official web portal to all federal, state and local government web resources and services.